Terminal Aerodrome Forecast
Issued by NWS Lubbock, TX

Home | Current Version | Previous Version | Text Only | Print | Product List | Glossary On
Versions: 1 2 3 4 5 6 7 8 9 10 11 12 13
000
FTUS44 KLUB 300600 RRA
TAFLBB
TAF
KLBB 300606Z 3006/3106 10009KT P6SM SCT050 OVC100
     FM301000 15009KT P6SM SCT010 SCT050 OVC100
     FM301500 20014KT P6SM SCT050 SCT100=

USA.gov is the U.S. government's official web portal to all federal, state and local government web resources and services.